FW7184 Weather Reports


Display with metric or nautical units.
time (UTC)temp
F
wind
direction
speed
MPH
gust
MPH
rain 1hr
in
rain 24hr
in
rain mn
in
humidity
%
barometer
mb
20260502130739 52 69 0.0 1.0 0.00 0.05 0.05 86 1012.7
20260502130237 51 120 0.0 0.0 0.00 0.05 0.05 87 1012.4
20260502123723 49 106 0.0 0.0 0.00 0.05 0.05 93 1012.5
20260502123219 49 131 0.0 0.0 0.00 0.05 0.05 95 1012.6
20260502122716 49 136 0.0 0.0 0.00 0.05 0.05 96 1012.4
20260502122212 49 115 0.0 1.0 0.00 0.05 0.05 97 1012.4
20260502121711 49 123 0.0 0.0 0.00 0.05 0.05 98 1012.3
20260502121209 49 104 1.0 1.0 0.00 0.05 0.05 98 1012.4
20260502120704 48 31 0.0 0.0 0.00 0.05 0.05 99 1012.4
20260502120201 48 113 0.0 0.0 0.00 0.05 0.05 99 1012.3
20260502115659 48 119 0.0 0.0 0.00 0.05 0.05 99 1012.3
20260502115155 48 128 0.0 0.0 0.00 0.05 0.05 99 1012.8
20260502114651 48 120 0.0 0.0 0.00 0.05 0.05 99 1012.6
20260502114149 48 128 0.0 0.0 0.00 0.05 0.05 99 1012.4
20260502113646 48 108 0.0 0.0 0.00 0.05 0.05 99 1012.6
20260502113144 48 120 0.0 0.0 0.00 0.05 0.05 99 1012.3
20260502112642 48 125 0.0 0.0 0.00 0.05 0.05 99 1012.4
20260502112139 48 120 0.0 0.0 0.00 0.05 0.05 99 1012.4
20260502111636 48 106 0.0 0.0 0.00 0.05 0.05 99 1012.1
20260502111134 48 119 0.0 0.0 0.00 0.05 0.05 99 1012.2
20260502110632 48 117 0.0 0.0 0.00 0.05 0.05 99 1012.1
20260502110129 48 123 0.0 0.0 0.00 0.05 0.05 99 1012.0
20260502105626 48 119 0.0 0.0 0.00 0.05 0.05 99 1012.2
20260502105117 47 121 0.0 0.0 0.00 0.05 0.05 99 1011.8
20260502104614 47 125 0.0 0.0 0.00 0.05 0.05 99 1012.0
20260502104112 47 123 0.0 0.0 0.00 0.05 0.05 99 1011.8
20260502103610 47 121 0.0 0.0 0.00 0.05 0.05 99 1012.0
20260502103108 47 131 0.0 0.0 0.00 0.05 0.05 99 1012.0
20260502102604 47 123 0.0 0.0 0.00 0.05 0.05 99 1012.0
20260502102101 47 124 0.0 0.0 0.00 0.05 0.05 99 1012.0
20260502101559 47 127 0.0 0.0 0.00 0.05 0.05 99 1012.0
20260502101057 47 131 0.0 0.0 0.00 0.05 0.05 99 1011.9
20260502100554 47 128 0.0 0.0 0.00 0.05 0.05 99 1011.5
20260502091530 48 127 0.0 0.0 0.00 0.01 0.01 97 1012.0
20260502091027 48 127 0.0 0.0 0.00 0.01 0.01 97 1011.9
20260502090524 48 134 0.0 0.0 0.00 0.01 0.01 97 1011.8
20260502071418 48 126 0.0 0.0 0.00 0.00 0.00 96 1011.9
20260502070916 48 123 0.0 0.0 0.00 0.00 0.00 96 1011.9
20260502070414 48 121 0.0 0.0 0.00 0.00 0.00 96 1011.9
20260502065912 48 123 0.0 0.0 0.00 0.00 0.00 96 1011.7
20260502065410 48 127 0.0 0.0 0.00 0.00 0.00 96 1011.5
20260502064908 48 128 0.0 0.0 0.00 0.00 0.00 96 1011.6
20260502064406 48 118 0.0 0.0 0.00 0.00 0.00 96 1011.8
20260502063903 48 123 0.0 0.0 0.00 0.00 0.00 95 1012.0
20260502063400 48 113 0.0 0.0 0.00 0.00 0.00 95 1011.9
20260502062857 48 122 0.0 0.0 0.00 0.00 0.00 95 1011.9
20260502062355 48 123 0.0 0.0 0.00 0.00 0.00 95 1011.8
20260502061854 49 121 0.0 0.0 0.00 0.00 0.00 94 1011.8
20260502061351 49 123 0.0 0.0 0.00 0.00 0.00 94 1011.8
20260502060847 49 118 0.0 0.0 0.00 0.00 0.00 94 1011.8
20260502060342 49 129 0.0 0.0 0.00 0.00 0.00 94 1012.1
20260502055839 49 131 0.0 0.0 0.00 0.00 0.00 93 1011.9
20260502055338 49 127 0.0 0.0 0.00 0.00 0.00 93 1012.0
20260502054837 49 117 0.0 0.0 0.00 0.00 0.00 92 1011.9
20260502054334 49 122 0.0 0.0 0.00 0.00 0.00 92 1012.4
20260502053831 49 120 0.0 0.0 0.00 0.00 0.00 92 1012.1
20260502053328 49 127 0.0 0.0 0.00 0.00 0.00 91 1012.2
20260502052826 49 122 0.0 0.0 0.00 0.00 0.00 91 1011.9
20260502052324 49 129 0.0 0.0 0.00 0.00 0.00 90 1011.9
20260502051821 49 123 0.0 0.0 0.00 0.00 0.00 90 1012.0
20260502051320 49 119 0.0 0.0 0.00 0.00 0.00 89 1011.8
20260502050816 50 125 0.0 0.0 0.00 0.00 0.00 89 1012.1
20260502050312 50 126 0.0 0.0 0.00 0.00 0.00 88 1012.1
20260502045810 50 120 0.0 0.0 0.00 0.00 0.00 88 1012.0
20260502045306 50 125 0.0 0.0 0.00 0.00 0.00 87 1012.0
20260502044803 50 130 0.0 0.0 0.00 0.00 0.00 87 1012.0
20260502044259 50 123 0.0 0.0 0.00 0.00 0.00 87 1012.2
20260502043757 50 126 0.0 0.0 0.00 0.00 0.00 87 1012.1
20260502043254 50 134 0.0 0.0 0.00 0.00 0.00 88 1012.1
20260502042753 50 122 0.0 0.0 0.00 0.00 0.00 87 1012.0
20260502042251 50 122 0.0 0.0 0.00 0.00 0.00 87 1012.0
20260502041748 50 127 0.0 0.0 0.00 0.00 0.00 87 1012.0
20260502041245 50 127 0.0 0.0 0.00 0.00 0.00 87 1011.9
20260502040743 49 121 0.0 0.0 0.00 0.00 0.00 87 1011.9
20260502040239 49 123 0.0 0.0 0.00 0.00 0.00 87 1011.9
20260502035735 49 125 0.0 0.0 0.00 0.00 0.00 87 1012.1
20260502035232 49 126 0.0 0.0 0.00 0.00 0.00 87 1012.1
20260502034729 49 117 0.0 0.0 0.00 0.00 0.00 87 1011.9
20260502034228 49 125 0.0 0.0 0.00 0.00 0.00 87 1011.9
20260502033725 49 126 0.0 0.0 0.00 0.00 0.00 86 1012.2
20260502033223 49 122 0.0 0.0 0.00 0.00 0.00 86 1011.9
20260502032720 50 123 0.0 0.0 0.00 0.00 0.00 86 1011.9
20260502032215 50 121 0.0 0.0 0.00 0.00 0.00 85 1012.0
20260502031714 49 122 0.0 0.0 0.00 0.00 0.00 87 1012.2
20260502031212 49 126 0.0 0.0 0.00 0.00 0.00 88 1012.1
20260502030710 49 122 0.0 0.0 0.00 0.00 0.00 88 1012.2
20260502030208 49 121 0.0 0.0 0.00 0.00 0.00 88 1012.1
20260502025704 49 119 0.0 0.0 0.00 0.00 0.00 89 1012.3
20260502025202 49 124 0.0 0.0 0.00 0.00 0.00 89 1012.4
20260502024700 49 126 0.0 0.0 0.00 0.00 0.00 90 1012.1
20260502024158 48 128 0.0 0.0 0.00 0.00 0.00 90 1012.2
20260502023656 48 124 0.0 0.0 0.00 0.00 0.00 90 1012.2
20260502023153 48 124 0.0 0.0 0.00 0.00 0.00 90 1012.2
20260502022649 48 125 0.0 0.0 0.00 0.00 0.00 90 1012.4
20260502022146 48 119 0.0 0.0 0.00 0.00 0.00 89 1012.4
20260502021644 48 122 0.0 0.0 0.00 0.00 0.00 89 1012.2
20260502021141 49 122 0.0 0.0 0.00 0.00 0.00 89 1012.2
20260502020638 49 122 0.0 0.0 0.00 0.00 0.00 88 1012.3
20260502020135 49 122 0.0 0.0 0.00 0.00 0.00 88 1012.3
20260502015633 49 122 0.0 0.0 0.00 0.00 0.00 87 1012.1
20260502015129 49 123 0.0 0.0 0.00 0.00 0.00 86 1012.1
20260502014627 50 122 0.0 0.0 0.00 0.00 0.00 86 1012.2
20260502014123 50 122 0.0 0.0 0.00 0.00 0.00 85 1012.1
20260502013619 50 122 0.0 0.0 0.00 0.00 0.00 84 1011.8
20260502013115 50 121 0.0 0.0 0.00 0.00 0.00 83 1011.9
20260502012613 51 124 0.0 0.0 0.00 0.00 0.00 83 1012.0
20260502012111 51 122 0.0 0.0 0.00 0.00 0.00 83 1012.0
20260502011607 51 121 0.0 0.0 0.00 0.00 0.00 82 1012.2
20260502011103 52 119 0.0 0.0 0.00 0.00 0.00 82 1012.1
20260502010600 53 116 0.0 0.0 0.00 0.00 0.00 79 1012.2
20260502010056 53 128 0.0 0.0 0.00 0.00 0.00 78 1012.1
20260502005554 53 119 0.0 0.0 0.00 0.00 0.00 76 1012.1
20260502005052 53 129 0.0 0.0 0.00 0.00 0.00 74 1012.1
20260502004548 54 127 0.0 0.0 0.00 0.00 0.00 75 1012.2
20260502004044 54 127 0.0 0.0 0.00 0.00 0.00 74 1012.2
20260502003543 55 128 0.0 0.0 0.00 0.00 0.00 73 1012.0
20260502003039 55 122 0.0 0.0 0.00 0.00 0.00 70 1012.0
20260502002536 55 124 0.0 0.0 0.00 0.00 0.00 69 1012.1
20260502002033 55 130 0.0 0.0 0.00 0.00 0.00 69 1011.9
20260502001531 56 131 0.0 0.0 0.00 0.00 0.00 67 1011.9
20260502001027 56 120 0.0 0.0 0.00 0.00 0.00 65 1011.9
20260502000526 56 116 0.0 0.0 0.00 0.00 0.00 65 1011.8
20260502000023 56 116 0.0 0.0 0.00 0.00 0.00 64 1011.7
20260501235518 56 111 1.0 1.0 0.00 0.00 0.00 64 1011.3
20260501235014 56 110 0.0 0.0 0.00 0.00 0.00 63 1011.5
20260501234510 57 119 0.0 0.0 0.00 0.00 0.00 63 1011.0
20260501234009 57 107 1.0 1.0 0.00 0.00 0.00 62 1010.9
20260501233506 57 130 0.0 0.0 0.00 0.00 0.00 62 1011.1
20260501233002 57 109 0.0 0.0 0.00 0.00 0.00 62 1010.8
20260501232459 57 121 0.0 1.0 0.00 0.00 0.00 60 1010.7
20260501231956 57 141 0.0 0.0 0.00 0.00 0.00 60 1010.8
20260501231455 58 134 0.0 1.0 0.00 0.00 0.00 59 1010.6
20260501230952 58 122 0.0 1.0 0.00 0.00 0.00 60 1010.4
20260501230451 58 120 0.0 0.0 0.00 0.00 0.00 61 1010.6
20260501225948 58 92 1.0 1.0 0.00 0.00 0.00 59 1010.5
20260501225446 58 115 0.0 0.0 0.00 0.00 0.00 58 1010.3
20260501224941 58 136 0.0 1.0 0.00 0.00 0.00 58 1010.2
20260501224439 58 94 0.0 1.0 0.00 0.00 0.00 58 1010.1
20260501223936 59 129 1.0 1.0 0.00 0.00 0.00 56 1010.3
20260501223432 59 106 1.0 1.0 0.00 0.00 0.00 55 1010.2
20260501222927 60 70 1.0 1.0 0.00 0.00 0.00 54 1010.1
20260501222425 61 116 0.0 1.0 0.00 0.00 0.00 52 1010.2
20260501221921 61 109 0.0 0.0 0.00 0.00 0.00 51 1010.2
20260501221419 62 119 0.0 0.0 0.00 0.00 0.00 49 1010.3
20260501220917 62 75 0.0 1.0 0.00 0.00 0.00 46 1010.2
20260501220414 62 109 0.0 1.0 0.00 0.00 0.00 43 1010.3
20260501215910 62 97 0.0 0.0 0.00 0.00 0.00 43 1010.3
20260501215407 63 120 0.0 0.0 0.00 0.00 0.00 43 1010.0
20260501214902 63 115 0.0 0.0 0.00 0.00 0.00 43 1009.9
20260501214357 63 132 1.0 2.0 0.00 0.00 0.00 40 1009.9
20260501213853 63 112 0.0 1.0 0.00 0.00 0.00 41 1010.2
20260501213350 63 164 1.0 2.0 0.00 0.00 0.00 40 1010.1
20260501212846 63 109 0.0 0.0 0.00 0.00 0.00 39 1010.0
20260501212343 63 118 0.0 0.0 0.00 0.00 0.00 39 1009.9
20260501211840 64 105 0.0 1.0 0.00 0.00 0.00 37 1009.9
20260501211337 64 117 0.0 0.0 0.00 0.00 0.00 39 1009.9
20260501210834 64 107 1.0 1.0 0.00 0.00 0.00 38 1009.9
20260501210331 64 112 0.0 0.0 0.00 0.00 0.00 38 1010.0
20260501205827 64 125 0.0 0.0 0.00 0.00 0.00 41 1010.1
20260501205325 64 66 2.0 2.0 0.00 0.00 0.00 37 1010.1
20260501204821 63 105 1.0 2.0 0.00 0.00 0.00 39 1010.1
20260501204318 63 93 2.0 2.0 0.00 0.00 0.00 38 1010.2
20260501203814 62 103 0.0 1.0 0.00 0.00 0.00 38 1009.9
20260501203311 63 121 0.0 1.0 0.00 0.00 0.00 37 1010.2
20260501202808 64 244 1.0 3.0 0.00 0.00 0.00 38 1010.1
20260501202306 63 121 0.0 0.0 0.00 0.00 0.00 38 1010.3
20260501201802 63 177 0.0 1.0 0.00 0.00 0.00 39 1010.4
20260501201258 64 127 1.0 1.0 0.00 0.00 0.00 38 1010.4
20260501200755 63 121 0.0 0.0 0.00 0.00 0.00 39 1010.2
20260501200252 63 112 1.0 1.0 0.00 0.00 0.00 39 1010.4
20260501195750 64 118 2.0 2.0 0.00 0.00 0.00 38 1010.5
20260501195245 64 156 3.0 3.0 0.00 0.00 0.00 37 1010.2
20260501194742 63 138 1.0 1.0 0.00 0.00 0.00 39 1010.3
20260501194238 62 106 0.0 0.0 0.00 0.00 0.00 40 1010.2
20260501193735 62 199 4.0 5.0 0.00 0.00 0.00 37 1010.5
20260501193233 62 131 0.0 0.0 0.00 0.00 0.00 39 1010.4
20260501192730 62 67 1.0 1.0 0.00 0.00 0.00 38 1010.4
20260501192227 63 95 1.0 1.0 0.00 0.00 0.00 37 1010.4
20260501191724 63 47 1.0 2.0 0.00 0.00 0.00 39 1010.8
20260501191221 64 126 0.0 1.0 0.00 0.00 0.00 36 1010.7
20260501190718 64 130 0.0 1.0 0.00 0.00 0.00 42 1010.8
20260501190213 64 105 0.0 0.0 0.00 0.00 0.00 37 1010.9
20260501185710 63 145 0.0 0.0 0.00 0.00 0.00 37 1011.0
20260501185205 63 112 1.0 1.0 0.00 0.00 0.00 37 1011.0
20260501184656 63 100 0.0 1.0 0.00 0.00 0.00 40 1011.2
20260501184156 63 126 1.0 1.0 0.00 0.00 0.00 38 1011.3
20260501183653 62 137 0.0 1.0 0.00 0.00 0.00 40 1011.3
20260501183150 63 84 0.0 0.0 0.00 0.00 0.00 40 1011.2
20260501182646 63 55 3.0 3.0 0.00 0.00 0.00 42 1011.6
20260501182143 62 161 0.0 1.0 0.00 0.00 0.00 40 1011.5
20260501181640 62 94 1.0 1.0 0.00 0.00 0.00 38 1011.3
20260501181136 62 95 1.0 1.0 0.00 0.00 0.00 43 1011.5
20260501180636 63 126 0.0 1.0 0.00 0.00 0.00 38 1011.5
20260501180131 62 126 0.0 1.0 0.00 0.00 0.00 41 1011.5
20260501175628 61 155 0.0 1.0 0.00 0.00 0.00 41 1011.6
20260501175125 62 110 2.0 2.0 0.00 0.00 0.00 41 1011.5
20260501174622 61 133 0.0 0.0 0.00 0.00 0.00 42 1011.6
20260501174120 61 93 0.0 1.0 0.00 0.00 0.00 42 1011.5
20260501173617 61 174 2.0 2.0 0.00 0.00 0.00 43 1011.8
20260501173114 60 124 1.0 1.0 0.00 0.00 0.00 42 1011.7
20260501172609 60 54 3.0 3.0 0.00 0.00 0.00 40 1011.7
20260501172104 60 60 1.0 2.0 0.00 0.00 0.00 41 1012.1
20260501171600 60 81 2.0 2.0 0.00 0.00 0.00 40 1012.0
20260501171058 60 98 1.0 2.0 0.00 0.00 0.00 41 1012.0
20260501170555 60 79 1.0 2.0 0.00 0.00 0.00 43 1012.0
20260501170051 59 112 2.0 2.0 0.00 0.00 0.00 44 1012.2
20260501165549 60 93 1.0 1.0 0.00 0.00 0.00 44 1012.1
20260501165046 59 54 1.0 2.0 0.00 0.00 0.00 45 1012.1
20260501164544 59 122 1.0 1.0 0.00 0.00 0.00 42 1012.4
20260501164040 59 102 2.0 2.0 0.00 0.00 0.00 42 1012.0
20260501163537 59 133 0.0 1.0 0.00 0.00 0.00 44 1012.2
20260501163034 58 151 1.0 2.0 0.00 0.00 0.00 43 1012.6
20260501162530 58 108 0.0 1.0 0.00 0.00 0.00 43 1012.4
20260501162027 58 110 0.0 0.0 0.00 0.00 0.00 45 1012.3
20260501161525 58 117 1.0 2.0 0.00 0.00 0.00 44 1012.6
20260501161021 57 152 3.0 3.0 0.00 0.00 0.00 43 1012.5
20260501160518 57 135 0.0 1.0 0.00 0.00 0.00 43 1012.7
20260501160015 58 31 2.0 5.0 0.00 0.00 0.00 42 1012.8
20260501155512 58 127 0.0 0.0 0.00 0.00 0.00 43 1012.8
20260501155009 57 122 0.0 1.0 0.00 0.00 0.00 43 1012.9
20260501154506 57 108 0.0 1.0 0.00 0.00 0.00 46 1012.8
20260501154003 57 90 2.0 5.0 0.00 0.00 0.00 42 1012.9
20260501153501 57 115 0.0 0.0 0.00 0.00 0.00 46 1012.9
20260501152955 57 100 0.0 0.0 0.00 0.00 0.00 47 1012.9
20260501152454 57 114 0.0 0.0 0.00 0.00 0.00 48 1013.1
20260501151951 56 148 1.0 1.0 0.00 0.00 0.00 46 1013.0
20260501151448 56 105 0.0 1.0 0.00 0.00 0.00 43 1013.1
20260501150944 57 73 3.0 5.0 0.00 0.00 0.00 44 1013.2
20260501150440 56 87 0.0 1.0 0.00 0.00 0.00 47 1013.1
20260501145936 56 128 0.0 0.0 0.00 0.00 0.00 48 1013.0
20260501145432 55 88 1.0 1.0 0.00 0.00 0.00 47 1013.2
20260501144931 56 46 1.0 1.0 0.00 0.00 0.00 48 1013.1
20260501144426 57 169 1.0 1.0 0.00 0.00 0.00 48 1013.2
20260501143922 55 128 0.0 0.0 0.00 0.00 0.00 51 1013.0
20260501143419 55 93 2.0 3.0 0.00 0.00 0.00 48 1013.1
20260501142915 55 158 2.0 2.0 0.00 0.00 0.00 48 1012.9
20260501142413 55 53 0.0 1.0 0.00 0.00 0.00 50 1013.0